This is the latest recevied weather packets stored in our database for station/object WA6OOO. If no packets are shown the sender has not sent any weather packets the latest 10 day(s).
| Time | Temp. | Humidity | Pressure | Rain* | Wind** | Luminosity | Snow |
|---|---|---|---|---|---|---|---|
| 1777381647 | 11.11° C | 69% | 1020.3 hPa | 0 mm | - | 2 W/m² | - |
| 1777381344 | 10.56° C | 71% | 1020 hPa | 0 mm | - | 1 W/m² | - |
| 1777381040 | 10° C | 76% | 1020 hPa | 0 mm | - | 0 W/m² | - |
| 1777380736 | 10.56° C | 74% | 1019.9 hPa | 0 mm | - | 0 W/m² | - |
| 1777380433 | 11.11° C | 71% | 1019.8 hPa | 0 mm | - | 0 W/m² | - |
| 1777380130 | 11.67° C | 68% | 1019.8 hPa | 0 mm | - | 0 W/m² | - |
| 1777379826 | 11.67° C | 68% | 1019.8 hPa | 0 mm | - | 0 W/m² | - |
| 1777379522 | 11.67° C | 68% | 1019.7 hPa | 0 mm | - | 0 W/m² | - |
| 1777379217 | 11.67° C | 69% | 1019.7 hPa | 0 mm | - | 0 W/m² | - |
| 1777378912 | 11.67° C | 68% | 1019.6 hPa | 0 mm | - | 0 W/m² | - |
| 1777378609 | 11.67° C | 68% | 1019.6 hPa | 0 mm | - | 0 W/m² | - |
| 1777378304 | 11.67° C | 69% | 1019.7 hPa | 0 mm | - | 0 W/m² | - |
| 1777378004 | 11.67° C | 70% | 1019.6 hPa | 0 mm | - | 0 W/m² | - |
| 1777377703 | 11.67° C | 71% | 1019.6 hPa | 0 mm | - | 0 W/m² | - |
| 1777377399 | 11.67° C | 71% | 1019.6 hPa | 0 mm | - | 0 W/m² | - |
| 1777377096 | 11.67° C | 71% | 1019.7 hPa | 0 mm | - | 0 W/m² | - |
| 1777376792 | 11.67° C | 72% | 1019.7 hPa | 0 mm | - | 0 W/m² | - |
| 1777376490 | 11.67° C | 72% | 1019.6 hPa | 0 mm | - | 0 W/m² | - |
| 1777376185 | 11.67° C | 72% | 1019.6 hPa | 0 mm | - | 0 W/m² | - |
| 1777375882 | 11.67° C | 73% | 1019.7 hPa | 0 mm | - | 0 W/m² | - |
| 1777375581 | 11.67° C | 73% | 1019.8 hPa | 0 mm | - | 0 W/m² | - |
| 1777375277 | 11.67° C | 74% | 1019.6 hPa | 0 mm | - | 0 W/m² | - |
| 1777374973 | 11.67° C | 73% | 1019.9 hPa | 0 mm | - | 0 W/m² | - |
| 1777374669 | 11.67° C | 73% | 1019.9 hPa | 0 mm | - | 0 W/m² | - |
| 1777374365 | 11.67° C | 73% | 1019.7 hPa | 0 mm | - | 0 W/m² | - |
* Rain latest hour (hover to see other rain measurements)
** Current wind speed in m/s (hover to see current wind gust speed)